GW3447 Weather Reports


time (UTC)temp
C
wind
direction
speed
KPH
gust
KPH
rain 1hr
cm
rain 24hr
cm
rain mn
cm
humidity
%
barometer
mb
20260503225025 22 144 1.6 6.4 0.00 0.00 0.00 61 1011.1
20260503224521 22 163 1.6 9.7 0.00 0.00 0.00 63 1011.1
20260503224020 22 103 1.6 9.7 0.00 0.00 0.00 59 1011.3
20260503223519 22 107 1.6 11.3 0.00 0.00 0.00 61 1011.3
20260503223024 22 95 3.2 11.3 0.00 0.00 0.00 60 1011.4
20260503222518 21 137 0.0 8.0 0.00 0.00 0.00 61 1011.4
20260503222018 21 17 3.2 8.0 0.00 0.00 0.00 62 1011.5
20260503221517 20 201 0.0 6.4 0.00 0.00 0.00 61 1011.6
20260503221017 21 143 1.6 6.4 0.00 0.00 0.00 62 1011.7
20260503220517 21 144 1.6 8.0 0.00 0.00 0.00 64 1011.7
20260503220018 21 141 1.6 8.0 0.00 0.00 0.00 61 1011.8
20260503215515 21 80 0.0 8.0 0.00 0.00 0.00 61 1011.9
20260503215014 21 120 3.2 8.0 0.00 0.00 0.00 61 1011.9
20260503214514 22 82 3.2 9.7 0.00 0.00 0.00 62 1012.1
20260503214014 23 222 3.2 11.3 0.00 0.00 0.00 54 1012.1
20260503213512 23 283 1.6 11.3 0.00 0.00 0.00 59 1012.0
20260503213011 22 60 1.6 12.9 0.00 0.00 0.00 58 1012.0
20260503212510 22 344 1.6 12.9 0.00 0.00 0.00 61 1012.2
20260503212009 22 300 1.6 9.7 0.00 0.00 0.00 65 1012.2
20260503211517 22 292 1.6 9.7 0.00 0.00 0.00 62 1012.2
20260503211008 22 46 1.6 6.4 0.00 0.00 0.00 61 1012.2
20260503210508 22 9 1.6 6.4 0.00 0.00 0.00 65 1012.2
20260503210015 21 309 1.6 12.9 0.00 0.00 0.00 63 1012.2
20260503205508 21 355 1.6 12.9 0.00 0.00 0.00 67 1012.4
20260503205006 21 36 1.6 8.0 0.00 0.00 0.00 69 1012.4
20260503204504 21 355 1.6 8.0 0.00 0.00 0.00 65 1012.4
20260503204003 21 331 1.6 6.4 0.00 0.00 0.00 65 1012.5
20260503203503 21 322 1.6 6.4 0.00 0.00 0.00 67 1012.6
20260503203007 21 9 1.6 6.4 0.00 0.00 0.00 69 1012.6
20260503202503 21 350 0.0 6.4 0.00 0.00 0.00 71 1012.7
20260503202001 20 235 0.0 8.0 0.00 0.00 0.00 67 1012.7
20260503201501 21 74 1.6 8.0 0.00 0.00 0.00 66 1012.8
20260503201102 21 318 0.0 8.0 0.00 0.00 0.00 68 1013.0
20260503200601 21 214 0.0 4.8 0.00 0.00 0.00 70 1013.0
20260503200201 20 182 1.6 6.4 0.00 0.00 0.00 68 1013.1
20260503195559 21 248 1.6 8.0 0.00 0.00 0.00 67 1013.1
20260503195058 21 288 1.6 8.0 0.00 0.00 0.00 69 1013.2
20260503194558 21 236 1.6 6.4 0.00 0.00 0.00 69 1013.3
20260503194100 20 231 1.6 9.7 0.00 0.00 0.00 67 1013.3
20260503193557 21 211 3.2 9.7 0.00 0.00 0.00 63 1013.3
20260503193055 20 305 0.0 4.8 0.00 0.00 0.00 69 1013.3
20260503192553 20 295 0.0 3.2 0.00 0.00 0.00 69 1013.4
20260503192052 20 129 0.0 4.8 0.00 0.00 0.00 71 1013.5
20260503191603 19 211 1.6 4.8 0.00 0.00 0.00 74 1013.4
20260503191051 18 163 1.6 4.8 0.00 0.00 0.00 76 1013.5
20260503190551 18 205 3.2 4.8 0.00 0.00 0.00 76 1013.5
20260503190055 18 206 3.2 4.8 0.00 0.00 0.00 76 1013.6
20260503185550 18 201 3.2 6.4 0.00 0.00 0.00 76 1013.5
20260503185050 18 202 3.2 6.4 0.00 0.00 0.00 75 1013.6
20260503184606 19 206 3.2 8.0 0.00 0.00 0.00 77 1013.7
20260503184050 19 195 3.2 8.0 0.00 0.00 0.00 78 1013.7
20260503183548 19 202 3.2 6.4 0.00 0.00 0.00 75 1013.9
20260503183048 18 204 3.2 6.4 0.00 0.00 0.00 75 1013.9
20260503182547 19 200 3.2 6.4 0.00 0.00 0.00 75 1013.8
20260503182047 18 190 1.6 4.8 0.00 0.00 0.00 75 1013.9
20260503181545 18 184 1.6 4.8 0.00 0.00 0.00 76 1013.9
20260503181044 18 194 3.2 6.4 0.00 0.00 0.00 77 1014.0
20260503180543 18 198 1.6 6.4 0.00 0.00 0.00 77 1014.0
20260503180042 18 173 3.2 6.4 0.00 0.00 0.00 75 1014.0
20260503175540 18 213 3.2 6.4 0.00 0.00 0.00 76 1014.1
20260503175039 17 187 1.6 4.8 0.00 0.00 0.00 78 1014.1
20260503174550 17 198 3.2 4.8 0.00 0.00 0.00 77 1014.2
20260503174037 17 105 1.6 6.4 0.00 0.00 0.00 78 1014.1
20260503173536 17 204 3.2 6.4 0.00 0.00 0.00 78 1014.2
20260503173036 17 201 1.6 6.4 0.00 0.00 0.00 77 1014.3
20260503172535 17 139 3.2 6.4 0.00 0.00 0.00 76 1014.3
20260503172034 17 123 1.6 6.4 0.00 0.00 0.00 75 1014.2
20260503171536 17 178 1.6 6.4 0.00 0.00 0.00 76 1014.4
20260503171034 17 155 1.6 6.4 0.00 0.00 0.00 76 1014.4
20260503170534 16 185 1.6 6.4 0.00 0.00 0.00 75 1014.4
20260503150530 13 68 0.0 4.8 0.00 0.00 0.00 86 1014.8
20260503131013 13 33 0.0 3.2 0.00 0.00 0.00 79 1014.2
20260503130517 13 117 1.6 3.2 0.00 0.00 0.00 79 1014.2
20260503110501 14 355 3.2 4.8 0.00 0.00 0.00 72 1014.4
20260503100105 15 355 3.2 6.4 0.00 0.00 0.00 69 1014.5
20260503081555 16 346 3.2 4.8 0.00 0.00 0.00 66 1014.6
20260503081043 16 346 3.2 4.8 0.00 0.00 0.00 65 1014.5
20260503080546 16 346 3.2 6.4 0.00 0.00 0.00 66 1014.5
20260503072540 16 355 3.2 6.4 0.00 0.00 0.00 63 1014.4
20260503072039 16 336 3.2 6.4 0.00 0.00 0.00 63 1014.4
20260503071601 16 348 3.2 6.4 0.00 0.00 0.00 65 1014.4
20260503071038 16 346 3.2 6.4 0.00 0.00 0.00 63 1014.4
20260503070537 16 346 3.2 6.4 0.00 0.00 0.00 64 1014.4
20260503055035 15 344 3.2 6.4 0.00 0.00 0.00 68 1014.4
20260503054550 15 9 3.2 4.8 0.00 0.00 0.00 70 1014.4
20260503054033 15 9 3.2 4.8 0.00 0.00 0.00 73 1014.4
20260503053533 15 9 3.2 4.8 0.00 0.00 0.00 72 1014.4
20260503053033 15 9 1.6 4.8 0.00 0.00 0.00 72 1014.4
20260503052533 15 5 1.6 6.4 0.00 0.00 0.00 71 1014.4
20260503052033 16 5 1.6 6.4 0.00 0.00 0.00 70 1014.4
20260503051543 16 9 1.6 6.4 0.00 0.00 0.00 69 1014.4
20260503051034 16 5 3.2 8.0 0.00 0.00 0.00 67 1014.3
20260503050532 16 9 3.2 8.0 0.00 0.00 0.00 67 1014.3
20260503050033 16 338 3.2 6.4 0.00 0.00 0.00 68 1014.3
20260503045532 16 344 3.2 4.8 0.00 0.00 0.00 69 1014.2
20260503045034 16 327 1.6 4.8 0.00 0.00 0.00 69 1014.3
20260503044532 16 347 3.2 8.0 0.00 0.00 0.00 69 1014.1
20260503044030 16 346 3.2 9.7 0.00 0.00 0.00 69 1014.2
20260503043530 16 344 3.2 9.7 0.00 0.00 0.00 69 1014.6
20260503043030 16 344 3.2 6.4 0.00 0.00 0.00 69 1014.1
20260503042530 16 344 3.2 8.0 0.00 0.00 0.00 69 1014.0
20260503042030 15 347 3.2 8.0 0.00 0.00 0.00 71 1013.9
20260503041533 15 22 3.2 6.4 0.00 0.00 0.00 71 1014.0
20260503041030 15 30 3.2 4.8 0.00 0.00 0.00 71 1013.9
20260503040532 15 36 1.6 4.8 0.00 0.00 0.00 72 1013.9
20260503040029 15 19 1.6 4.8 0.00 0.00 0.00 72 1013.8
20260503035529 15 19 1.6 4.8 0.00 0.00 0.00 73 1013.8
20260503035030 15 19 1.6 3.2 0.00 0.00 0.00 73 1014.0
20260503034529 16 19 1.6 3.2 0.00 0.00 0.00 73 1013.6
20260503034028 16 19 0.0 3.2 0.00 0.00 0.00 73 1013.5
20260503033528 16 19 1.6 3.2 0.00 0.00 0.00 73 1013.5
20260503033028 16 19 0.0 3.2 0.00 0.00 0.00 73 1013.5
20260503032528 16 19 1.6 3.2 0.00 0.00 0.00 73 1013.5
20260503032029 16 19 1.6 3.2 0.00 0.00 0.00 73 1013.4
20260503031532 16 19 0.0 3.2 0.00 0.00 0.00 73 1013.4
20260503031028 16 27 0.0 3.2 0.00 0.00 0.00 71 1013.4
20260503030626 16 27 0.0 3.2 0.00 0.00 0.00 72 1013.3
20260503030030 16 269 0.0 3.2 0.00 0.00 0.00 73 1013.2
20260503025526 17 212 1.6 6.4 0.00 0.00 0.00 70 1013.2
20260503025025 17 196 1.6 6.4 0.00 0.00 0.00 71 1013.1
20260503024532 17 204 1.6 4.8 0.00 0.00 0.00 71 1013.1
20260503024025 17 204 0.0 3.2 0.00 0.00 0.00 71 1013.1
20260503023525 17 202 0.0 3.2 0.00 0.00 0.00 72 1013.0
20260503023024 17 317 0.0 6.4 0.00 0.00 0.00 72 1013.0
20260503022523 17 304 1.6 8.0 0.00 0.00 0.00 71 1013.0
20260503022024 17 319 1.6 8.0 0.00 0.00 0.00 70 1013.1
20260503021523 18 145 0.0 6.4 0.00 0.00 0.00 68 1013.1
20260503021023 18 338 0.0 4.8 0.00 0.00 0.00 67 1013.2
20260503020527 18 297 1.6 6.4 0.00 0.00 0.00 67 1013.1
20260503020023 18 291 3.2 6.4 0.00 0.00 0.00 67 1013.2
20260503015521 18 254 0.0 4.8 0.00 0.00 0.00 69 1013.2
20260503015021 18 302 0.0 9.7 0.00 0.00 0.00 69 1013.3
20260503014521 18 36 1.6 9.7 0.00 0.00 0.00 67 1013.2
20260503014020 18 331 0.0 4.8 0.00 0.00 0.00 67 1013.4
20260503013520 18 333 1.6 8.0 0.00 0.00 0.00 67 1013.4
20260503013030 18 275 1.6 8.0 0.00 0.00 0.00 67 1013.4
20260503012523 19 279 1.6 4.8 0.00 0.00 0.00 67 1013.4
20260503012020 19 18 1.6 4.8 0.00 0.00 0.00 68 1013.4
20260503011520 19 224 0.0 11.3 0.00 0.00 0.00 68 1013.5
20260503011020 19 126 1.6 11.3 0.00 0.00 0.00 68 1013.6
20260503010518 19 142 1.6 9.7 0.00 0.00 0.00 65 1013.6
20260503010018 20 222 1.6 6.4 0.00 0.00 0.00 65 1013.6
20260503005518 20 206 1.6 4.8 0.00 0.00 0.00 64 1013.6
20260503005018 20 247 0.0 4.8 0.00 0.00 0.00 63 1013.6
20260503004518 20 120 0.0 4.8 0.00 0.00 0.00 62 1013.7
20260503004016 20 57 0.0 3.2 0.00 0.00 0.00 64 1013.6
20260503003516 20 266 0.0 9.7 0.00 0.00 0.00 66 1013.7
20260503003022 20 276 3.2 14.5 0.00 0.00 0.00 64 1013.7
20260503002516 20 171 1.6 14.5 0.00 0.00 0.00 62 1013.6
20260503002016 20 269 1.6 6.4 0.00 0.00 0.00 64 1013.6
20260503001515 20 257 1.6 4.8 0.00 0.00 0.00 62 1013.8
20260503001015 20 273 0.0 6.4 0.00 0.00 0.00 62 1013.9
20260503000518 20 338 0.0 6.4 0.00 0.00 0.00 64 1013.8
20260503000013 20 314 1.6 9.7 0.00 0.00 0.00 63 1013.9
20260502235513 20 29 4.8 9.7 0.00 0.00 0.00 63 1013.9
20260502235013 20 63 1.6 4.8 0.00 0.00 0.00 63 1014.0
20260502234519 20 144 1.6 6.4 0.00 0.00 0.00 65 1014.0
20260502234012 20 161 0.0 6.4 0.00 0.00 0.00 64 1014.1
20260502233511 20 238 0.0 6.4 0.00 0.00 0.00 66 1014.1
20260502233012 20 238 1.6 6.4 0.00 0.00 0.00 65 1014.2
20260502232510 20 229 1.6 8.0 0.00 0.00 0.00 65 1014.2
20260502232011 20 275 0.0 8.0 0.00 0.00 0.00 67 1014.3
20260502231510 20 317 1.6 6.4 0.00 0.00 0.00 67 1014.3
20260502231010 20 205 0.0 6.4 0.00 0.00 0.00 65 1014.3
20260502230509 20 46 1.6 12.9 0.00 0.00 0.00 64 1014.4
20260502230009 20 335 1.6 12.9 0.00 0.00 0.00 66 1014.5
20260502225507 20 240 1.6 9.7 0.00 0.00 0.00 64 1014.6